Lansing, MI

4:30 AM EST on February 28, 2017 (GMT -0500)
Capital City

Weather History for KLAN - December, 2012

Change the Weather History Date:

Saturday, December 8, 2012

  Actual Average Record
Temperature  
Mean Temperature 34 °F 31 °F  
Max Temperature 41 °F 37 °F 65 °F (1966)
Min Temperature 26 °F 25 °F -25 °F (1864)
Degree Days  
Heating Degree Days 31 34  
Month to date heating degree days 187 265  
Since 1 July heating degree days 1594 1679  
Cooling Degree Days 0 0  
Month to date cooling degree days 0 0  
Year to date cooling degree days 940 625  
Moisture  
Dew Point 31 °F    
Average Humidity 87    
Maximum Humidity 92    
Minimum Humidity 82    
Precipitation  
Precipitation 0.25 in 0.07 in 0.81 in (1901)
Month to date precipitation 0.62 0.55  
Year to date precipitation 27.05 30.45  
Snow  
Snow 0.50 in 0.40 in 4.10 in (1977)
Month to date snowfall 0.5 2.8  
Since 1 July snowfall 1.0 6.6  
Snow Depth 0.00 in    
Sea Level Pressure  
Sea Level Pressure 29.98 in    
Wind  
Wind Speed 6 mph (NNE)    
Max Wind Speed 14 mph    
Max Gust Speed 17 mph    
Visibility 5 miles    
Events Rain , Snow    
T = Trace of Precipitation, MM = Missing Value Source: NWS Daily Summary

Daily Weather History Graph

Daily Weather History Graph

Search for Another Location

Airport or City:

Trip Planner

Search our weather history database for the weather conditions in past years. The results will help you decide how hot, cold, wet, or windy it might be!

Date:

Astronomy

Dec. 08, 2012 Rise Set
Actual Time 7:56 AM EST 5:04 PM EST
Civil Twilight 7:24 AM EST 5:36 PM EST
Nautical Twilight 6:49 AM EST 6:11 PM EST
Astronomical Twilight 6:14 AM EST 6:46 PM EST
Moon 2:14 AM EST (12/8) 1:39 PM EST (12/8)
Length of Visible Light 10h 11m
Length of Day
9h 07m
Waning Crescent, 28% of the Moon is Illuminated
Dec 8
Waning Crescent
Dec 13
New
Dec 20
First Quarter
Dec 28
Full
Jan 4
Last Quarter

Hourly Weather History & Observations

Time (EST) Temp. Windchill Dew Point Humidity Pressure Visibility Wind Dir Wind Speed Gust Speed Precip Events Conditions
12:32 AM 41.0 °F 36.4 °F 37.4 °F 87% 29.89 in 2.0 mi NE 6.9 mph - 0.00 in   Light Drizzle
12:46 AM 41.0 °F 36.4 °F 39.2 °F 93% 29.88 in 1.5 mi NE 6.9 mph - 0.00 in   Light Drizzle
12:53 AM 41.0 °F 36.4 °F 37.9 °F 89% 29.89 in 1.5 mi ENE 6.9 mph - 0.00 in   Light Drizzle
1:41 AM 39.2 °F 34.2 °F 39.2 °F 100% 29.87 in 1.5 mi NE 6.9 mph - 0.00 in   Light Drizzle
1:53 AM 39.9 °F 33.9 °F 37.9 °F 93% 29.88 in 1.5 mi NE 9.2 mph - 0.00 in   Light Drizzle
2:53 AM 39.0 °F 31.8 °F 37.0 °F 93% 29.86 in 1.5 mi ENE 11.5 mph - 0.00 in   Light Drizzle
3:33 AM 37.4 °F 30.8 °F 35.6 °F 93% 29.86 in 4.0 mi NE 9.2 mph - 0.00 in   Light Drizzle
3:53 AM 37.9 °F 31.5 °F 36.0 °F 93% 29.88 in 3.0 mi NNE 9.2 mph - 0.00 in   Light Drizzle
4:53 AM 35.1 °F 27.4 °F 34.0 °F 96% 29.88 in 3.0 mi NE 10.4 mph - 0.01 in   Light Drizzle
5:22 AM 35.6 °F 28.6 °F 33.8 °F 93% 29.85 in 6.0 mi NE 9.2 mph - 0.02 in Rain , Snow Light Rain
5:53 AM 33.8 °F 26.4 °F 32.0 °F 93% 29.84 in 7.0 mi NE 9.2 mph - N/A Rain , Snow Light Rain
6:53 AM 35.1 °F 27.4 °F 32.0 °F 89% 29.89 in 10.0 mi NNE 10.4 mph - 0.00 in Snow Light Snow
7:09 AM 33.8 °F 26.4 °F 30.2 °F 87% 29.89 in 2.5 mi North 9.2 mph - 0.01 in Snow Light Snow
7:36 AM 33.8 °F 25.8 °F 30.2 °F 87% 29.88 in 0.8 mi North 10.4 mph - 0.05 in Snow Light Snow
7:53 AM 33.1 °F 26.9 °F 30.9 °F 92% 29.91 in 0.8 mi North 6.9 mph - 0.07 in Snow Light Snow
8:15 AM 32.0 °F 26.4 °F 30.2 °F 93% 29.89 in 1.5 mi North 5.8 mph - 0.00 in Snow Light Snow
8:42 AM 32.0 °F 24.8 °F 30.2 °F 93% 29.92 in 0.8 mi North 8.1 mph - 0.01 in Snow Light Snow
8:53 AM 32.0 °F 24.2 °F 30.0 °F 92% 29.94 in 0.5 mi North 9.2 mph - 0.02 in Snow Light Snow
9:53 AM 32.0 °F 24.8 °F 30.0 °F 92% 29.97 in 1.0 mi North 8.1 mph - 0.01 in Snow Light Snow
10:53 AM 32.0 °F 25.6 °F 28.9 °F 88% 29.98 in 1.0 mi North 6.9 mph - 0.01 in Snow Light Snow
11:53 AM 32.0 °F 26.4 °F 30.0 °F 92% 29.99 in 0.8 mi North 5.8 mph - 0.00 in Snow Light Snow
12:39 PM 33.8 °F 27.7 °F 30.2 °F 87% 29.96 in 1.5 mi North 6.9 mph - 0.00 in Snow Light Snow
12:53 PM 33.1 °F 26.9 °F 30.0 °F 89% 29.98 in 1.5 mi North 6.9 mph - 0.00 in Snow Light Snow
1:00 PM 33.8 °F 27.7 °F 30.2 °F 87% 29.96 in 3.0 mi North 6.9 mph - 0.00 in Snow Light Snow
1:53 PM 33.1 °F 27.7 °F 30.0 °F 89% 30.00 in 10.0 mi NNW 5.8 mph - 0.00 in   Overcast
2:53 PM 33.1 °F 26.9 °F 30.0 °F 89% 30.03 in 10.0 mi NNW 6.9 mph - N/A   Overcast
3:53 PM 33.1 °F 28.7 °F 28.9 °F 85% 30.06 in 10.0 mi North 4.6 mph - N/A   Overcast
4:53 PM 32.0 °F 24.8 °F 28.0 °F 85% 30.09 in 10.0 mi North 8.1 mph - N/A   Overcast
5:32 PM 32.0 °F 27.5 °F 28.4 °F 87% 30.07 in 10.0 mi North 4.6 mph - N/A   Mostly Cloudy
5:53 PM 30.9 °F - 27.0 °F 85% 30.11 in 10.0 mi Calm Calm - N/A   Mostly Cloudy
6:53 PM 30.0 °F - 27.0 °F 88% 30.14 in 10.0 mi Calm Calm - N/A   Scattered Clouds
7:53 PM 28.4 °F - 26.6 °F 93% 30.13 in 9.0 mi Calm Calm - N/A   Partly Cloudy
8:53 PM 28.0 °F - 26.1 °F 92% 30.17 in 6.0 mi Calm Calm - N/A   Mostly Cloudy
9:53 PM 27.0 °F 23.0 °F 25.0 °F 92% 30.16 in 6.0 mi ENE 3.5 mph - N/A   Mostly Cloudy
10:17 PM 26.6 °F - 24.8 °F 93% 30.16 in 8.0 mi Calm Calm - N/A   Mostly Cloudy
10:53 PM 28.0 °F - 26.1 °F 92% 30.19 in 8.0 mi Calm Calm - N/A   Overcast
11:22 PM 28.4 °F 24.6 °F 24.8 °F 86% 30.16 in 10.0 mi NE 3.5 mph - N/A   Overcast
11:53 PM 28.0 °F - 26.1 °F 92% 30.20 in 9.0 mi Calm Calm - N/A   Overcast